TOM44 EGKK-MKJS

Flight info

Callsign TOM44
Flight time N/A
Altitude 36000
Route IMVUR SAM N19 ADKIK DCT FONZU DCT LESLU/M084F360 DCT TUVEN DCT GIPER DCT DINIM DCT 51N020W 50N030W 47N040W 41N050W/M084F380 35N060W/M084F400 DCT LAZEY DCT SHEIL DCT SEBIS DCT CANEE/N0483F400 M331 GHANN UM331 ULDAR R625 TILUP LENAR7
Aircraft B789/H-SDE1E2E3FGHIJ2J3J4J5M1RWXY/LB1D1

Departure

Time N/A
Airport London Gatwick Airport (EGKK)

Arrival

Time 2026-04-28 21:53
Airport Sangster International Airport (MKJS)
Time Latitude Longitude Altitude Speed Heading
2026-04-28 19:23 31.67877 -64.28656 39945 ft 459 kts 237°
2026-04-28 19:23 31.63795 -64.34422 39947 ft 459 kts 237°
2026-04-28 19:24 31.59707 -64.40187 39956 ft 462 kts 237°
2026-04-28 19:24 31.55584 -64.45990 39961 ft 464 kts 237°
2026-04-28 19:25 31.51484 -64.51752 39956 ft 461 kts 237°
2026-04-28 19:25 31.47376 -64.57521 39958 ft 461 kts 237°
2026-04-28 19:26 31.43269 -64.63275 39957 ft 460 kts 237°
2026-04-28 19:26 31.39161 -64.69024 39958 ft 460 kts 236°
2026-04-28 19:27 31.35050 -64.74769 39971 ft 461 kts 236°
2026-04-28 19:27 31.30937 -64.80506 39970 ft 460 kts 236°
2026-04-28 19:28 31.26827 -64.86232 39974 ft 460 kts 236°
2026-04-28 19:28 31.22712 -64.91956 39976 ft 460 kts 236°
2026-04-28 19:29 31.19292 -64.96707 39974 ft 460 kts 236°
2026-04-28 19:29 31.14457 -65.03416 39976 ft 464 kts 236°
2026-04-28 19:30 31.10299 -65.09168 39982 ft 462 kts 236°
2026-04-28 19:30 31.06162 -65.14893 39983 ft 461 kts 236°
2026-04-28 19:31 31.02029 -65.20599 39981 ft 460 kts 236°
2026-04-28 19:31 30.97896 -65.26297 39981 ft 460 kts 236°
2026-04-28 19:32 30.93763 -65.31988 39989 ft 461 kts 235°
2026-04-28 19:32 30.89604 -65.37705 39997 ft 464 kts 235°
2026-04-28 19:33 30.85424 -65.43442 40000 ft 465 kts 235°
2026-04-28 19:33 30.81242 -65.49173 40004 ft 464 kts 235°
2026-04-28 19:34 30.77061 -65.54896 40008 ft 464 kts 235°
2026-04-28 19:34 30.72904 -65.60576 39998 ft 463 kts 235°
2026-04-28 19:35 30.68736 -65.66264 40004 ft 463 kts 235°
2026-04-28 19:35 30.64548 -65.71971 40003 ft 465 kts 235°
2026-04-28 19:36 30.60364 -65.77662 40007 ft 465 kts 235°
2026-04-28 19:36 30.56153 -65.83384 40013 ft 465 kts 235°
2026-04-28 19:37 30.52637 -65.88155 40009 ft 462 kts 234°
2026-04-28 19:37 30.47793 -65.94718 40015 ft 460 kts 234°
2026-04-28 19:38 30.43604 -66.00385 40022 ft 464 kts 234°
2026-04-28 19:38 30.39397 -66.06066 40025 ft 465 kts 234°
2026-04-28 19:39 30.35182 -66.11752 40021 ft 465 kts 234°
2026-04-28 19:39 30.31010 -66.17370 40022 ft 463 kts 234°
2026-04-28 19:40 30.26814 -66.23015 40013 ft 462 kts 234°
2026-04-28 19:40 30.22620 -66.28648 40018 ft 464 kts 234°
2026-04-28 19:41 30.18387 -66.34326 40031 ft 467 kts 234°
2026-04-28 19:41 30.14140 -66.40011 40035 ft 467 kts 234°
2026-04-28 19:42 30.09899 -66.45682 40024 ft 465 kts 234°
2026-04-28 19:42 30.06386 -66.50374 40018 ft 464 kts 234°
2026-04-28 19:43 30.01479 -66.56920 40028 ft 464 kts 234°
2026-04-28 19:43 29.97233 -66.62574 40035 ft 469 kts 234°
2026-04-28 19:44 29.92955 -66.68260 40044 ft 470 kts 234°
2026-04-28 19:44 29.88804 -66.74014 40038 ft 465 kts 236°
2026-04-28 19:45 29.84732 -66.79798 40039 ft 465 kts 236°
2026-04-28 19:45 29.80677 -66.85592 40041 ft 465 kts 236°
2026-04-28 19:46 29.76606 -66.91382 40043 ft 466 kts 236°
2026-04-28 19:46 29.72522 -66.97189 40042 ft 468 kts 236°
2026-04-28 19:47 29.68428 -67.02998 40059 ft 465 kts 236°
2026-04-28 19:47 29.64358 -67.08767 40041 ft 464 kts 236°
2026-04-28 19:48 29.60297 -67.14516 40039 ft 463 kts 236°
2026-04-28 19:48 29.56925 -67.19280 40047 ft 463 kts 236°
2026-04-28 19:49 29.52849 -67.25036 40062 ft 465 kts 236°
2026-04-28 19:49 29.48756 -67.30805 40047 ft 466 kts 236°
2026-04-28 19:50 29.42655 -67.39390 40048 ft 462 kts 236°
2026-04-28 19:51 29.38596 -67.45092 40054 ft 461 kts 236°
2026-04-28 19:51 29.34532 -67.50793 40052 ft 462 kts 236°
2026-04-28 19:52 29.30468 -67.56486 40058 ft 462 kts 236°
2026-04-28 19:52 29.26376 -67.62209 40059 ft 463 kts 236°
2026-04-28 19:53 29.22308 -67.67892 40064 ft 461 kts 236°
2026-04-28 19:53 29.18244 -67.73562 40062 ft 461 kts 236°
2026-04-28 19:54 29.14177 -67.79226 40060 ft 461 kts 236°
2026-04-28 19:54 29.10108 -67.84887 40063 ft 461 kts 236°
2026-04-28 19:55 29.06031 -67.90552 40048 ft 461 kts 235°
2026-04-28 19:55 29.01941 -67.96227 40075 ft 464 kts 235°
2026-04-28 19:56 28.97854 -68.01887 40078 ft 465 kts 235°
2026-04-28 19:56 28.93739 -68.07581 40080 ft 465 kts 235°
2026-04-28 19:57 28.89622 -68.13269 40082 ft 465 kts 235°
2026-04-28 19:57 28.85504 -68.18951 40082 ft 465 kts 235°
2026-04-28 19:58 28.81388 -68.24622 40072 ft 464 kts 235°
2026-04-28 19:58 28.77277 -68.30279 40072 ft 462 kts 235°
2026-04-28 19:59 28.73174 -68.35916 40072 ft 461 kts 235°
2026-04-28 19:59 28.69077 -68.41538 40072 ft 461 kts 235°
2026-04-28 20:00 28.64974 -68.47162 40076 ft 463 kts 235°
2026-04-28 20:00 28.60851 -68.52804 40083 ft 464 kts 234°
2026-04-28 20:01 28.56699 -68.58480 40083 ft 469 kts 234°
2026-04-28 20:01 28.52519 -68.64183 40083 ft 468 kts 234°
2026-04-28 20:02 28.48352 -68.69862 40082 ft 468 kts 234°
2026-04-28 20:02 28.44186 -68.75533 40084 ft 467 kts 234°
2026-04-28 20:03 28.40025 -68.81189 40071 ft 466 kts 234°
2026-04-28 20:03 28.35874 -68.86824 40079 ft 465 kts 234°
2026-04-28 20:04 28.31698 -68.92486 40086 ft 470 kts 234°
2026-04-28 20:04 28.27496 -68.98172 40090 ft 470 kts 234°
2026-04-28 20:05 28.23296 -69.03852 40087 ft 469 kts 234°
2026-04-28 20:05 28.19100 -69.09517 40084 ft 469 kts 234°
2026-04-28 20:06 28.14912 -69.15164 40080 ft 467 kts 233°
2026-04-28 20:06 28.10738 -69.20785 40085 ft 466 kts 233°
2026-04-28 20:07 28.06547 -69.26422 40087 ft 469 kts 233°
2026-04-28 20:07 28.02334 -69.32078 40087 ft 470 kts 233°
2026-04-28 20:08 27.98119 -69.37732 40082 ft 470 kts 233°
2026-04-28 20:08 27.93905 -69.43375 40097 ft 469 kts 233°
2026-04-28 20:09 27.89712 -69.48983 40095 ft 466 kts 233°
2026-04-28 20:09 27.85528 -69.54575 40092 ft 466 kts 233°
2026-04-28 20:10 27.81320 -69.60189 40093 ft 469 kts 233°
2026-04-28 20:10 27.77096 -69.65816 40090 ft 469 kts 233°
2026-04-28 20:11 27.72985 -69.71492 40101 ft 467 kts 234°
2026-04-28 20:11 27.68848 -69.77155 40093 ft 467 kts 234°
2026-04-28 20:12 27.64764 -69.82845 40094 ft 466 kts 234°
2026-04-28 20:12 27.60654 -69.88505 40084 ft 467 kts 234°
2026-04-28 20:13 27.56535 -69.94202 40086 ft 470 kts 234°
2026-04-28 20:13 27.52420 -69.99869 40090 ft 470 kts 234°
2026-04-28 20:14 27.48276 -70.05576 40094 ft 470 kts 234°
2026-04-28 20:14 27.44136 -70.11267 40086 ft 470 kts 234°
2026-04-28 20:15 27.39992 -70.16958 40092 ft 469 kts 234°
2026-04-28 20:15 27.35851 -70.22635 40091 ft 470 kts 234°
2026-04-28 20:16 27.31696 -70.28325 40095 ft 471 kts 234°
2026-04-28 20:16 27.27527 -70.34028 40102 ft 473 kts 234°
2026-04-28 20:17 27.23354 -70.39727 40092 ft 472 kts 234°
2026-04-28 20:17 27.19179 -70.45423 40087 ft 473 kts 234°
2026-04-28 20:18 27.14988 -70.51132 40090 ft 474 kts 234°
2026-04-28 20:18 27.10793 -70.56840 40092 ft 474 kts 233°
2026-04-28 20:19 27.06582 -70.62563 40093 ft 476 kts 233°
2026-04-28 20:19 27.02367 -70.68282 40087 ft 475 kts 233°
2026-04-28 20:20 26.98155 -70.73991 40094 ft 477 kts 233°
2026-04-28 20:20 26.93912 -70.79735 40097 ft 479 kts 233°
2026-04-28 20:21 26.89664 -70.85476 40094 ft 478 kts 233°
2026-04-28 20:21 26.85495 -70.91105 40091 ft 478 kts 233°
2026-04-28 20:22 26.81238 -70.96845 40096 ft 480 kts 233°
2026-04-28 20:22 26.76975 -71.02584 40099 ft 479 kts 233°
2026-04-28 20:23 26.72750 -71.08266 40096 ft 477 kts 233°
2026-04-28 20:23 26.68512 -71.13959 40092 ft 475 kts 233°
2026-04-28 20:24 26.64251 -71.19675 40093 ft 476 kts 233°
2026-04-28 20:24 26.60031 -71.25327 40094 ft 476 kts 233°
2026-04-28 20:25 26.55784 -71.31009 40097 ft 477 kts 233°
2026-04-28 20:25 26.51533 -71.36690 40098 ft 477 kts 233°
2026-04-28 20:26 26.47278 -71.42368 40099 ft 477 kts 233°
2026-04-28 20:26 26.43018 -71.48047 40097 ft 477 kts 233°
2026-04-28 20:27 26.38755 -71.53722 40101 ft 477 kts 232°
2026-04-28 20:27 26.34493 -71.59389 40097 ft 477 kts 232°
2026-04-28 20:28 26.30235 -71.65042 40095 ft 476 kts 232°
2026-04-28 20:28 26.25985 -71.70679 40102 ft 473 kts 232°
2026-04-28 20:29 26.21763 -71.76270 40095 ft 472 kts 232°
2026-04-28 20:29 26.17534 -71.81866 40096 ft 473 kts 232°
2026-04-28 20:30 26.13294 -71.87468 40096 ft 474 kts 232°
2026-04-28 20:30 26.09043 -71.93077 40099 ft 474 kts 232°
2026-04-28 20:31 26.04785 -71.98689 40093 ft 475 kts 232°
2026-04-28 20:31 26.00535 -72.04282 40100 ft 469 kts 233°
2026-04-28 20:32 25.96379 -72.09747 40094 ft 459 kts 233°
2026-04-28 20:32 25.92246 -72.15177 40090 ft 462 kts 233°
2026-04-28 20:33 25.88079 -72.20640 40094 ft 464 kts 233°
2026-04-28 20:33 25.83905 -72.26109 40096 ft 464 kts 233°
2026-04-28 20:34 25.79719 -72.31586 40097 ft 466 kts 233°
2026-04-28 20:34 25.76236 -72.36138 40089 ft 464 kts 233°
2026-04-28 20:35 25.72087 -72.41555 40091 ft 459 kts 233°
2026-04-28 20:35 25.67951 -72.46951 40090 ft 459 kts 233°
2026-04-28 20:36 25.63807 -72.52347 40091 ft 460 kts 233°
2026-04-28 20:36 25.59657 -72.57748 40089 ft 460 kts 233°
2026-04-28 20:37 25.55501 -72.63147 40086 ft 462 kts 233°
2026-04-28 20:37 25.51322 -72.68571 40073 ft 463 kts 233°
2026-04-28 20:38 25.47186 -72.73932 40093 ft 454 kts 233°
2026-04-28 20:38 25.43087 -72.79245 40092 ft 454 kts 233°
2026-04-28 20:39 25.38971 -72.84566 40092 ft 456 kts 233°
2026-04-28 20:39 25.34850 -72.89892 40095 ft 456 kts 233°
2026-04-28 20:40 25.30716 -72.95225 40092 ft 457 kts 233°
2026-04-28 20:40 25.26570 -73.00570 40094 ft 459 kts 233°
2026-04-28 20:41 25.22428 -73.05900 40096 ft 454 kts 233°
2026-04-28 20:41 25.18335 -73.11167 40090 ft 452 kts 233°
2026-04-28 20:42 25.14238 -73.16430 40087 ft 452 kts 233°
2026-04-28 20:42 25.10139 -73.21688 40088 ft 452 kts 232°
2026-04-28 20:43 25.05273 -73.26193 40111 ft 465 kts 216°
2026-04-28 20:43 24.99662 -73.29801 40098 ft 468 kts 216°
2026-04-28 20:44 24.94040 -73.33397 40094 ft 466 kts 216°
2026-04-28 20:44 24.88432 -73.36986 40092 ft 466 kts 216°
2026-04-28 20:45 24.82829 -73.40565 40092 ft 466 kts 216°
2026-04-28 20:45 24.77262 -73.44119 40090 ft 466 kts 216°
2026-04-28 20:46 24.71654 -73.47694 40089 ft 466 kts 216°
2026-04-28 20:46 24.66063 -73.51255 40083 ft 464 kts 216°
2026-04-28 20:47 24.60481 -73.54808 40083 ft 463 kts 216°
2026-04-28 20:47 24.54905 -73.58352 40082 ft 463 kts 216°
2026-04-28 20:48 24.49320 -73.61899 40083 ft 464 kts 216°
2026-04-28 20:48 24.43732 -73.65443 40082 ft 464 kts 216°
2026-04-28 20:49 24.38137 -73.68989 40092 ft 466 kts 216°
2026-04-28 20:49 24.32511 -73.72549 40092 ft 467 kts 216°
2026-04-28 20:50 24.26880 -73.76110 40092 ft 467 kts 216°
2026-04-28 20:50 24.21243 -73.79671 40096 ft 467 kts 216°
2026-04-28 20:51 24.15613 -73.83224 40098 ft 467 kts 216°
2026-04-28 20:51 24.09974 -73.86779 40082 ft 469 kts 216°
2026-04-28 20:52 24.04313 -73.90344 40083 ft 469 kts 216°
2026-04-28 20:52 23.98649 -73.93907 40084 ft 470 kts 216°
2026-04-28 20:53 23.90151 -73.99246 40083 ft 470 kts 216°
2026-04-28 20:53 23.84483 -74.02803 40081 ft 470 kts 216°
2026-04-28 20:54 23.78800 -74.06365 40080 ft 472 kts 216°
2026-04-28 20:54 23.73105 -74.09931 40082 ft 471 kts 216°
2026-04-28 20:55 23.67428 -74.13482 40078 ft 470 kts 216°
2026-04-28 20:55 23.61763 -74.17023 40073 ft 468 kts 216°
2026-04-28 20:56 23.56114 -74.20550 40048 ft 468 kts 215°
2026-04-28 20:56 23.50441 -74.24089 40070 ft 472 kts 215°
2026-04-28 20:57 23.44729 -74.27646 40073 ft 473 kts 215°
2026-04-28 20:57 23.39023 -74.31199 40082 ft 472 kts 215°
2026-04-28 20:58 23.33355 -74.34723 40069 ft 472 kts 215°
2026-04-28 20:58 23.27648 -74.38268 40072 ft 473 kts 215°
2026-04-28 20:59 23.21925 -74.41820 40073 ft 475 kts 215°
2026-04-28 20:59 23.16184 -74.45379 40081 ft 475 kts 215°
2026-04-28 21:00 23.10446 -74.48932 40079 ft 474 kts 215°
2026-04-28 21:00 23.04720 -74.52476 40062 ft 474 kts 215°
2026-04-28 21:01 22.98999 -74.56012 40067 ft 473 kts 215°
2026-04-28 21:01 22.93296 -74.59533 40060 ft 470 kts 215°
2026-04-28 21:02 22.87604 -74.63045 40059 ft 471 kts 215°
2026-04-28 21:02 22.81908 -74.66555 40062 ft 471 kts 215°
2026-04-28 21:03 22.76209 -74.70065 40061 ft 471 kts 215°
2026-04-28 21:03 22.70507 -74.73571 40059 ft 471 kts 215°
2026-04-28 21:04 22.64842 -74.77053 40059 ft 470 kts 214°
2026-04-28 21:04 22.59154 -74.80545 40057 ft 469 kts 214°
2026-04-28 21:05 22.53478 -74.84026 40052 ft 468 kts 214°
2026-04-28 21:05 22.47807 -74.87502 40049 ft 470 kts 214°
2026-04-28 21:06 22.42103 -74.90993 40055 ft 472 kts 214°
2026-04-28 21:06 22.36387 -74.94489 40054 ft 473 kts 214°
2026-04-28 21:07 22.30664 -74.97986 40057 ft 472 kts 214°
2026-04-28 21:07 22.24941 -75.01479 40054 ft 472 kts 214°
2026-04-28 21:08 22.19226 -75.04965 40053 ft 472 kts 214°
2026-04-28 21:08 22.13504 -75.08451 40044 ft 472 kts 214°
2026-04-28 21:09 22.07778 -75.11937 40044 ft 473 kts 214°
2026-04-28 21:09 22.02032 -75.15432 40047 ft 474 kts 215°
2026-04-28 21:10 21.96924 -75.19751 40048 ft 466 kts 226°
2026-04-28 21:10 21.92161 -75.24487 40058 ft 466 kts 226°
2026-04-28 21:11 21.87407 -75.29237 40059 ft 466 kts 226°
2026-04-28 21:11 21.82644 -75.33977 40057 ft 466 kts 226°
2026-04-28 21:12 21.77891 -75.38710 40043 ft 465 kts 226°
2026-04-28 21:12 21.73156 -75.43417 40036 ft 463 kts 226°
2026-04-28 21:13 21.68436 -75.48109 40041 ft 466 kts 226°
2026-04-28 21:13 21.63636 -75.52871 40039 ft 467 kts 226°
2026-04-28 21:14 21.58891 -75.57578 40043 ft 467 kts 226°
2026-04-28 21:14 21.54117 -75.62307 40044 ft 467 kts 226°
2026-04-28 21:15 21.49345 -75.67030 40044 ft 466 kts 226°
2026-04-28 21:15 21.44601 -75.71720 40032 ft 462 kts 226°
2026-04-28 21:16 21.39877 -75.76389 40041 ft 462 kts 226°
2026-04-28 21:16 21.35139 -75.81065 40047 ft 465 kts 226°
2026-04-28 21:17 21.30365 -75.85773 40051 ft 467 kts 226°
2026-04-28 21:17 21.25585 -75.90481 40052 ft 466 kts 226°
2026-04-28 21:18 21.20804 -75.95188 40054 ft 467 kts 226°
2026-04-28 21:18 21.16027 -75.99884 40043 ft 464 kts 225°
2026-04-28 21:19 21.11273 -76.04556 40043 ft 463 kts 225°
2026-04-28 21:19 21.07322 -76.08435 40041 ft 463 kts 225°
2026-04-28 21:20 21.02570 -76.13096 40029 ft 463 kts 225°
2026-04-28 21:20 20.97813 -76.17758 40028 ft 465 kts 225°
2026-04-28 21:21 20.93025 -76.22445 40025 ft 466 kts 225°
2026-04-28 21:21 20.88237 -76.27129 40020 ft 466 kts 225°
2026-04-28 21:22 20.83454 -76.31804 40019 ft 466 kts 225°
2026-04-28 21:22 20.78670 -76.36474 40019 ft 466 kts 225°
2026-04-28 21:23 20.73937 -76.41092 40016 ft 466 kts 225°
2026-04-28 21:23 20.69132 -76.45776 40019 ft 465 kts 225°
2026-04-28 21:24 20.64348 -76.50434 40020 ft 465 kts 225°
2026-04-28 21:24 20.59571 -76.55083 40019 ft 467 kts 225°
2026-04-28 21:25 20.54742 -76.59776 40021 ft 468 kts 225°
2026-04-28 21:25 20.49920 -76.64459 40023 ft 468 kts 225°
2026-04-28 21:26 20.45101 -76.69136 40015 ft 468 kts 225°
2026-04-28 21:26 20.40284 -76.73805 40014 ft 468 kts 225°
2026-04-28 21:27 20.35464 -76.78475 40017 ft 468 kts 225°
2026-04-28 21:27 20.30646 -76.83137 40008 ft 468 kts 225°
2026-04-28 21:28 20.25839 -76.87785 40016 ft 466 kts 225°
2026-04-28 21:28 20.21022 -76.92439 40023 ft 468 kts 225°
2026-04-28 21:29 20.16193 -76.97100 40010 ft 469 kts 225°
2026-04-28 21:29 20.11358 -77.01763 40027 ft 469 kts 225°
2026-04-28 21:30 20.06524 -77.06421 40013 ft 469 kts 225°
2026-04-28 21:30 20.01697 -77.11067 39829 ft 464 kts 225°
2026-04-28 21:31 19.99312 -77.13362 39428 ft 458 kts 225°
2026-04-28 21:31 19.96968 -77.15615 38972 ft 453 kts 225°
2026-04-28 21:31 19.94629 -77.17865 38293 ft 453 kts 225°
2026-04-28 21:31 19.92294 -77.20111 37497 ft 454 kts 225°
2026-04-28 21:32 19.89946 -77.22365 36667 ft 455 kts 224°
2026-04-28 21:32 19.87595 -77.24622 35809 ft 458 kts 224°
2026-04-28 21:32 19.85222 -77.26900 34943 ft 461 kts 224°
2026-04-28 21:32 19.82839 -77.29186 34101 ft 463 kts 224°
2026-04-28 21:33 19.80447 -77.31479 33099 ft 465 kts 224°
2026-04-28 21:33 19.78030 -77.33797 32034 ft 468 kts 224°
2026-04-28 21:33 19.75603 -77.36123 30954 ft 472 kts 224°
2026-04-28 21:33 19.73154 -77.38467 29809 ft 476 kts 223°
2026-04-28 21:34 19.70698 -77.40817 29048 ft 470 kts 223°
2026-04-28 21:34 19.68292 -77.43117 28479 ft 464 kts 223°
2026-04-28 21:34 19.65886 -77.45420 27954 ft 470 kts 223°
2026-04-28 21:34 19.63441 -77.47759 27396 ft 476 kts 223°
2026-04-28 21:35 19.60974 -77.50116 26841 ft 478 kts 223°
2026-04-28 21:35 19.58496 -77.52482 26282 ft 480 kts 223°
2026-04-28 21:35 19.55974 -77.54802 25720 ft 482 kts 218°
2026-04-28 21:35 19.53127 -77.56716 25168 ft 488 kts 210°
2026-04-28 21:36 19.49990 -77.58126 24605 ft 492 kts 201°
2026-04-28 21:36 19.46726 -77.59258 24028 ft 495 kts 201°
2026-04-28 21:36 19.43447 -77.60388 23439 ft 496 kts 200°
2026-04-28 21:36 19.40193 -77.61499 22846 ft 483 kts 200°
2026-04-28 21:37 19.37048 -77.62579 22286 ft 468 kts 200°
2026-04-28 21:37 19.34000 -77.63635 21766 ft 453 kts 200°
2026-04-28 21:37 19.31044 -77.64656 21257 ft 441 kts 200°
2026-04-28 21:37 19.28168 -77.65643 20767 ft 429 kts 200°
2026-04-28 21:38 19.25377 -77.66602 20541 ft 414 kts 200°
2026-04-28 21:38 19.22666 -77.67535 20525 ft 407 kts 200°
2026-04-28 21:38 19.19961 -77.68469 20526 ft 423 kts 200°
2026-04-28 21:38 19.17136 -77.69441 20528 ft 429 kts 200°
2026-04-28 21:39 19.14325 -77.70499 20536 ft 428 kts 207°
2026-04-28 21:39 19.11768 -77.72083 20551 ft 422 kts 217°
2026-04-28 21:39 19.09427 -77.73841 20542 ft 410 kts 217°
2026-04-28 21:39 19.07064 -77.75628 20353 ft 428 kts 217°
2026-04-28 21:40 19.04639 -77.77464 19593 ft 427 kts 217°
2026-04-28 21:40 19.02229 -77.79278 18836 ft 424 kts 216°
2026-04-28 21:40 18.99839 -77.81072 18072 ft 419 kts 217°
2026-04-28 21:40 18.97480 -77.82851 17331 ft 413 kts 216°
2026-04-28 21:41 18.95160 -77.84599 16565 ft 406 kts 217°
2026-04-28 21:41 18.92858 -77.86332 15880 ft 401 kts 216°
2026-04-28 21:41 18.90586 -77.88039 15178 ft 401 kts 216°
2026-04-28 21:41 18.88319 -77.89743 14477 ft 398 kts 216°
2026-04-28 21:42 18.86076 -77.91429 13773 ft 393 kts 215°
2026-04-28 21:42 18.83863 -77.93092 13064 ft 387 kts 215°
2026-04-28 21:42 18.81682 -77.94730 12389 ft 385 kts 215°
2026-04-28 21:42 18.79516 -77.96356 11719 ft 379 kts 215°
2026-04-28 21:43 18.77389 -77.97954 11062 ft 372 kts 215°
2026-04-28 21:43 18.75299 -77.99521 10508 ft 364 kts 215°
2026-04-28 21:43 18.73266 -78.01024 10085 ft 351 kts 214°
2026-04-28 21:43 18.71329 -78.02446 9629 ft 320 kts 214°
2026-04-28 21:44 18.69605 -78.03720 9340 ft 293 kts 214°
2026-04-28 21:44 18.67941 -78.04950 9004 ft 289 kts 214°
2026-04-28 21:44 18.66317 -78.06149 8651 ft 282 kts 213°
2026-04-28 21:44 18.64728 -78.07321 8308 ft 277 kts 213°
2026-04-28 21:45 18.63153 -78.08482 7965 ft 275 kts 214°
2026-04-28 21:45 18.61583 -78.09642 7608 ft 275 kts 214°
2026-04-28 21:45 18.60015 -78.10798 7239 ft 276 kts 214°
2026-04-28 21:45 18.58446 -78.11955 6891 ft 275 kts 213°
2026-04-28 21:46 18.56883 -78.13107 6521 ft 274 kts 214°
2026-04-28 21:46 18.55321 -78.14260 6167 ft 274 kts 214°
2026-04-28 21:46 18.53721 -78.15341 5796 ft 272 kts 201°
2026-04-28 21:46 18.51894 -78.15655 5448 ft 266 kts 173°
2026-04-28 21:47 18.50160 -78.15088 5117 ft 260 kts 149°
2026-04-28 21:47 18.48628 -78.14125 4780 ft 254 kts 146°
2026-04-28 21:47 18.47167 -78.13126 4422 ft 241 kts 145°
2026-04-28 21:47 18.45841 -78.12232 4171 ft 213 kts 144°
2026-04-28 21:48 18.44637 -78.11438 3907 ft 196 kts 144°
2026-04-28 21:48 18.43587 -78.10658 3672 ft 173 kts 130°
2026-04-28 21:48 18.43030 -78.09590 3436 ft 166 kts 106°
2026-04-28 21:48 18.43146 -78.08422 3183 ft 157 kts 72°
2026-04-28 21:49 18.43498 -78.07370 3020 ft 145 kts 70°
2026-04-28 21:49 18.43864 -78.06424 2832 ft 139 kts 68°
2026-04-28 21:49 18.44252 -78.05479 2659 ft 140 kts 67°
2026-04-28 21:49 18.44661 -78.04546 2467 ft 138 kts 68°
2026-04-28 21:50 18.45056 -78.03622 2299 ft 139 kts 68°
2026-04-28 21:50 18.45458 -78.02690 2126 ft 141 kts 66°
2026-04-28 21:50 18.45863 -78.01762 1939 ft 136 kts 67°
2026-04-28 21:50 18.46253 -78.00857 1754 ft 137 kts 65°
2026-04-28 21:51 18.46640 -77.99964 1557 ft 135 kts 68°
2026-04-28 21:51 18.47034 -77.99049 1414 ft 141 kts 66°
2026-04-28 21:51 18.47439 -77.98105 1240 ft 138 kts 65°
2026-04-28 21:51 18.47827 -77.97218 1039 ft 131 kts 64°
2026-04-28 21:52 18.48207 -77.96323 868 ft 134 kts 65°
2026-04-28 21:52 18.48595 -77.95420 694 ft 133 kts 64°
2026-04-28 21:52 18.48977 -77.94550 485 ft 134 kts 64°
2026-04-28 21:52 18.49364 -77.93641 370 ft 139 kts 64°
2026-04-28 21:53 18.49759 -77.92733 139 ft 131 kts 62°
2026-04-28 21:53 18.50124 -77.91892 22 ft 114 kts 65°
2026-04-28 21:53 18.50353 -77.91368 17 ft 43 kts 65°
2026-04-28 21:53 18.50443 -77.91159 17 ft 28 kts 67°
2026-04-28 21:54 18.50513 -77.90992 19 ft 22 kts 74°
2026-04-28 21:54 18.50533 -77.90855 19 ft 14 kts 88°
2026-04-28 21:54 18.50531 -77.90758 17 ft 11 kts 90°
2026-04-28 21:54 18.50525 -77.90693 16 ft 7 kts 120°
2026-04-28 21:55 18.50476 -77.90677 16 ft 6 kts 207°
2026-04-28 21:55 18.50450 -77.90716 16 ft 8 kts 243°
2026-04-28 21:55 18.50424 -77.90777 16 ft 11 kts 245°
2026-04-28 21:55 18.50389 -77.90859 16 ft 14 kts 245°
2026-04-28 21:56 18.50344 -77.90961 16 ft 17 kts 245°
2026-04-28 21:56 18.50293 -77.91079 16 ft 18 kts 245°
2026-04-28 21:56 18.50238 -77.91206 16 ft 20 kts 245°
2026-04-28 21:56 18.50201 -77.91293 16 ft 9 kts 246°
2026-04-28 21:57 18.50184 -77.91315 16 ft 1 kts 199°
2026-04-28 21:57 18.50168 -77.91316 16 ft 3 kts 178°
2026-04-28 21:57 18.50139 -77.91308 16 ft 0 kts 158°
2026-04-28 21:57 18.50138 -77.91307 16 ft 0 kts 158°
2026-04-28 21:58 18.50136 -77.91307 16 ft 0 kts 164°
2026-04-28 21:58 18.50132 -77.91308 16 ft 1 kts 189°
2026-04-28 21:58 18.50126 -77.91313 16 ft 3 kts 217°
2026-04-28 21:59 18.50104 -77.91340 16 ft 6 kts 231°
2026-04-28 21:59 18.50080 -77.91361 16 ft 4 kts 202°
2026-04-28 21:59 18.50063 -77.91362 16 ft 4 kts 183°
2026-04-28 22:00 18.50017 -77.91368 16 ft 1 kts 185°
2026-04-28 22:00 18.50009 -77.91368 16 ft 1 kts 185°
2026-04-28 22:00 18.50005 -77.91369 16 ft 0 kts 185°